Wetbulb
74.50 76.33 77.98 78.82 78.73 78.88 78.59 78.44 78.42 78.06 77.98 77.56 77.66 77.23 76.99 77.26 77.50 77.18 77.61 76.94 77.16 77.39 77.51 77.40 77.30 77.40 76.46 77.16 77.13 77.11 76.80 77.24 77.40 77.77 77.56 77.31 77.04 76.97 76.57 76.61 77.45 76.54 76.80
75.41 76.08 77.94 78.62 78.83 79.06 79.29 78.98 78.74 78.41 77.66 77.88 77.46 77.47 77.54 77.50 77.11 77.50 76.86 76.76 76.97 77.05 77.29 77.41 77.49 77.32 77.37 77.01 77.07 77.14 77.40 77.50 77.44 76.95 76.87 76.53 76.61 76.41 76.22 76.53 78.26 76.93 76.55
75.13 75.92 76.86 78.40 78.79 78.41 79.29 79.20 78.86 77.91 77.58 77.51 77.44 77.47 77.39 77.06 76.78 77.36 76.55 76.46 76.30 77.37 77.57 77.36 77.46 76.70 76.45 76.72 76.86 76.56 76.66 77.05 77.22 76.63 76.73 76.59 76.97 76.72 76.69 76.11 76.91 76.59 76.51
75.56 76.32 76.67 78.11 78.63 78.11 78.50 78.60 78.55 77.45 77.42 77.47 77.83 77.51 77.47 77.25 77.34 77.72 76.75 76.83 75.92 76.47 77.33 77.38 77.44 76.98 76.73 77.30 77.08 77.22 77.35 76.95 76.72 75.99 75.40 74.39 74.76 75.78 76.83 76.34 76.20 76.14 76.58
74.85 76.45 77.87 78.65 78.67 78.09 78.31 78.26 78.49 78.13 77.56 77.69 77.85 77.58 77.41 77.17 76.75 76.50 77.10 77.65 77.67 76.66 76.11 76.75 76.72 77.16 76.56 76.61 76.97 77.42 77.53 77.28 76.59 76.51 75.18 76.11 75.86 77.16 76.63 76.03 75.59 75.08 74.78
75.93 76.43 77.03 78.29 77.84 78.09 77.98 78.02 77.48 77.21 77.36 77.49 77.60 77.31 77.29 77.07 77.13 77.48 76.61 76.11 76.20 76.96 77.27 76.06 77.18 77.08 76.61 76.23 76.50 76.36 76.68 75.66 76.06 75.18 75.34 73.43 74.37 75.20 74.81 74.45 75.00 75.35 75.12
75.32 76.32 77.02 78.37 78.18 77.82 77.72 77.42 77.29 77.01 76.96 76.82 76.58 76.36 76.17 75.81 75.39 75.17 75.39 76.41 76.85 75.81 75.70 76.22 76.06 76.80 76.88 76.11 75.86 76.42 76.25 76.43 76.22 75.32 74.75 74.49 76.46 76.70 76.88 76.84 76.04 75.93 76.21
74.64 75.68 76.55 78.01 78.15 78.00 77.73 77.59 77.40 77.01 76.79 76.82 76.52 76.06 75.53 75.36 75.86 76.17 76.28 75.67 75.33 75.47 76.69 75.78 75.42 75.67 76.14 76.08 76.11 76.30 76.25 76.80 75.63 75.36 75.09 74.36 76.51 76.19 75.11 74.62 74.15 74.26 74.22
74.77 75.12 75.72 76.22 77.40 77.68 77.73 77.13 76.61 76.68 76.63 76.55 75.92 75.64 76.00 75.83 75.64 75.72 75.50 75.53 75.59 75.81 75.78 75.59 76.28 76.24 75.53 75.25 75.94 76.16 76.02 75.97 76.56 76.28 75.34 75.09 76.01 75.62 75.61 75.74 75.38 75.57 76.49
73.94 74.44 75.15 75.79 76.82 77.32 77.23 77.02 76.64 76.61 76.38 76.25 75.78 76.50 75.94 75.70 75.28 75.44 75.09 75.50 75.45 75.89 76.14 75.72 75.75 75.74 75.94 76.32 75.75 75.42 75.53 75.83 76.01 75.62 75.40 76.59 76.24 75.38 76.76 77.09 75.93 74.64 74.12
72.88 73.66 74.56 74.77 75.77 76.37 76.87 76.74 76.75 76.94 76.66 76.46 75.55 74.80 76.03 76.87 77.40 76.25 74.97 73.43 75.05 76.22 75.64 75.92 75.89 75.97 76.10 76.02 75.99 75.94 75.61 75.51 75.76 75.50 75.83 74.21 75.65 75.43 76.25 76.96 76.99 75.65 74.79
71.54 72.85 74.49 74.77 74.99 75.47 75.24 77.24 77.56 77.72 77.42 75.31 74.70 74.09 75.26 74.36 76.35 75.08 74.05 71.87 72.74 74.56 75.97 75.84 75.71 75.92 75.78 75.02 76.21 76.19 74.77 74.54 75.44 74.35 74.53 74.71 75.17 76.10 75.89 76.36 77.03 76.73 75.91
71.39 72.73 74.02 74.83 75.68 75.36 76.47 76.85 76.86 78.69 73.80 73.78 73.42 74.56 73.06 73.01 74.42 74.40 74.38 73.66 73.62 74.00 74.39 76.13 76.42 75.99 75.40 74.11 74.21 74.62 74.60 74.49 74.07 74.08 75.00 75.20 74.77 75.23 75.06 76.03 76.39 76.60 76.73
70.91 71.78 73.16 74.49 75.46 75.10 75.84 75.98 75.11 73.26 73.24 72.67 72.45 72.03 73.67 72.78 71.61 74.10 71.91 73.22 73.26 73.66 74.08 76.29 75.92 76.29 76.07 74.97 74.32 74.54 74.54 74.55 74.25 74.16 75.10 74.52 74.61 75.33 75.90 76.08 76.97 76.44 76.55
70.91 72.09 73.18 74.03 75.31 75.48 75.93 77.04 74.60 75.53 71.98 72.56 72.02 71.86 72.34 72.40 72.90 72.90 72.61 72.94 72.90 73.99 73.79 76.34 75.97 74.77 75.18 74.92 74.16 74.18 74.17 74.29 74.52 74.41 74.61 75.03 74.69 75.33 75.68 76.24 76.33 76.16 76.21
72.18 72.43 73.69 74.25 75.38 75.97 75.19 76.09 75.71 75.39 76.29 73.61 72.44 73.65 73.37 71.65 71.69 71.46 72.05 72.29 73.22 74.19 73.67 74.06 74.09 73.42 75.21 74.73 73.25 74.06 74.60 74.68 75.44 75.55 75.03 75.36 75.02 74.87 75.55 75.81 76.14 76.36 76.34
73.25 73.90 74.08 74.66 75.25 75.68 75.26 73.02 74.83 76.24 75.22 74.64 74.89 74.29 74.58 74.05 73.08 73.46 72.75 73.17 73.78 74.78 75.91 71.71 74.10 76.26 76.04 74.98 73.10 74.21 75.03 75.21 75.02 75.35 75.66 74.80 75.33 75.15 75.46 75.72 75.74 76.55 76.30
75.36 75.41 75.80 75.14 75.27 75.45 75.57 75.26 74.65 76.78 76.86 76.25 76.14 74.93 74.83 74.18 74.25 74.52 73.36 72.90 74.00 74.03 74.42 74.13 73.76 75.57 75.72 75.06 73.40 73.94 74.51 74.61 75.25 75.66 75.65 75.31 75.15 74.85 75.95 75.80 76.09 76.69 76.20
75.91 76.07 76.12 76.27 75.63 75.86 76.47 77.61 76.78 76.05 75.50 78.37 77.93 77.05 75.34 74.30 75.13 74.50 73.41 73.43 74.42 78.53 74.94 72.83 72.57 74.78 74.64 74.40 73.77 73.89 74.17 74.50 74.73 74.97 74.94 75.77 76.09 75.79 75.17 75.96 75.97 76.10 75.73
76.06 76.61 76.54 76.46 76.51 76.94 76.59 76.73 79.19 79.16 76.16 78.23 78.27 75.74 75.33 75.26 75.66 75.64 74.92 75.28 76.37 74.87 75.22 74.60 74.32 75.09 74.38 73.66 71.71 73.42 74.03 74.16 74.43 75.08 74.98 75.38 75.99 76.24 76.05 76.03 76.55 76.03 75.90
75.70 76.09 76.52 76.25 76.64 76.39 75.64 74.87 75.22 76.68 78.73 75.65 76.16 76.38 76.15 75.42 76.25 76.81 76.22 76.12 77.32 75.11 75.14 75.17 75.37 74.41 73.34 75.67 72.24 70.19 72.70 73.88 74.25 74.49 75.21 74.74 75.02 75.55 75.95 75.75 76.07 76.06 76.02
75.26 76.05 76.46 76.51 76.76 76.51 76.07 76.16 75.90 78.26 77.07 75.70 76.13 76.67 76.72 75.88 76.02 76.49 77.07 76.79 76.52 74.31 75.25 75.33 75.31 74.03 74.36 74.09 70.39 70.04 67.24 70.99 73.25 73.86 74.33 74.59 74.76 74.84 75.09 75.96 76.02 76.48 76.78
74.78 75.66 76.07 77.00 76.81 77.04 77.21 76.49 76.27 76.37 77.54 77.25 76.03 75.26 76.32 76.93 76.67 76.90 77.10 77.49 75.16 74.20 72.81 74.46 75.04 73.72 74.29 75.41 74.48 71.56 69.40 68.13 70.18 72.63 71.77 72.07 73.73 73.96 74.76 74.80 74.92 75.40 76.26
74.52 75.64 76.44 77.05 77.34 77.21 77.69 76.10 75.82 73.98 74.41 75.02 75.05 75.26 76.14 77.55 77.36 77.11 77.42 76.08 74.94 72.54 71.36 69.41 74.64 76.14 74.82 72.34 74.54 72.95 74.19 71.72 66.73 68.38 72.56 72.66 74.09 72.77 73.95 74.70 74.79 75.04 76.09
74.45 75.06 75.85 76.60 77.19 77.57 77.41 77.20 75.90 75.22 74.83 76.70 75.65 76.04 78.08 77.35 77.57 77.17 77.62 77.06 74.11 74.86 74.55 74.49 74.62 74.94 77.83 75.62 73.47 72.47 69.19 69.37 70.04 68.91 66.91 69.76 72.81 72.47 74.06 74.07 74.07 74.35 75.00
74.65 74.58 75.36 76.05 76.75 77.35 77.40 77.14 76.51 75.97 76.49 75.62 77.22 76.77 76.57 75.20 78.48 77.98 77.56 77.33 74.71 74.70 75.51 76.53 76.40 75.97 76.22 75.68 74.50 70.48 70.11 69.55 68.27 68.89 69.41 67.68 67.57 72.32 73.54 73.61 73.66 74.25 74.63
MSLP
1013.81 1014.56 1015.16 1015.15 1015.30 1015.33 1015.45 1015.67 1015.89 1016.20 1016.53 1016.77 1017.02 1017.09 1017.09 1017.29 1017.46 1017.58 1017.67 1017.80 1017.93 1017.95 1018.01 1018.05 1018.14 1018.18 1018.37 1018.43 1018.52 1018.59 1018.69 1018.81 1018.88 1018.94 1019.09 1019.28 1019.36 1019.41 1019.48 1019.42 1019.11 1019.17 1019.97
1013.32 1014.47 1015.30 1015.39 1015.55 1015.64 1015.77 1015.94 1016.13 1016.41 1016.69 1016.91 1017.17 1017.36 1017.46 1017.50 1017.64 1017.72 1017.86 1018.04 1018.11 1018.19 1018.19 1018.28 1018.40 1018.54 1018.70 1018.86 1018.85 1018.95 1018.96 1019.05 1019.09 1019.18 1019.27 1019.33 1019.51 1019.67 1019.70 1019.55 1019.30 1019.88 1020.12
1013.21 1014.53 1015.18 1015.60 1015.83 1016.04 1016.12 1016.30 1016.47 1016.67 1016.92 1017.12 1017.31 1017.55 1017.73 1017.84 1017.94 1017.97 1018.06 1018.18 1018.34 1018.40 1018.47 1018.58 1018.66 1018.89 1018.98 1019.05 1019.19 1019.29 1019.34 1019.35 1019.33 1019.22 1018.99 1018.21 1019.28 1020.00 1020.04 1020.07 1020.19 1020.34 1020.40
1013.03 1014.05 1015.00 1015.93 1016.12 1016.33 1016.45 1016.62 1016.80 1016.97 1017.17 1017.33 1017.52 1017.70 1017.82 1017.99 1018.17 1018.20 1018.29 1018.34 1018.50 1018.64 1018.73 1018.88 1018.91 1019.08 1019.19 1019.23 1019.30 1019.32 1019.42 1019.62 1019.55 1019.22 1018.21 1018.42 1019.18 1020.30 1020.34 1020.43 1020.53 1020.69 1020.73
1013.41 1013.67 1015.29 1016.19 1016.46 1016.61 1016.76 1016.94 1017.11 1017.26 1017.42 1017.63 1017.76 1017.89 1018.02 1018.18 1018.30 1018.46 1018.55 1018.58 1018.70 1018.84 1018.88 1018.98 1019.16 1019.24 1019.42 1019.55 1019.54 1019.46 1019.62 1019.74 1019.57 1018.88 1018.78 1018.50 1018.66 1020.30 1020.52 1020.64 1020.79 1020.85 1020.80
1013.38 1013.68 1016.06 1016.39 1016.69 1016.87 1017.04 1017.20 1017.35 1017.51 1017.68 1017.92 1018.03 1018.15 1018.29 1018.44 1018.57 1018.66 1018.78 1018.92 1018.99 1019.01 1019.01 1019.14 1019.22 1019.38 1019.53 1019.65 1019.74 1019.80 1019.80 1019.83 1019.54 1018.88 1019.12 1019.55 1018.95 1020.48 1020.72 1020.70 1020.91 1021.06 1021.12
1013.28 1014.06 1015.84 1016.51 1016.88 1017.08 1017.29 1017.46 1017.60 1017.78 1017.91 1018.10 1018.22 1018.38 1018.56 1018.67 1018.81 1018.95 1019.03 1019.10 1019.12 1019.18 1019.20 1019.25 1019.34 1019.51 1019.59 1019.66 1019.82 1019.91 1020.02 1019.86 1018.98 1019.17 1019.09 1019.16 1019.45 1020.63 1020.79 1020.87 1021.04 1021.17 1021.26
1013.21 1014.23 1015.65 1016.72 1017.08 1017.27 1017.40 1017.56 1017.76 1017.98 1018.17 1018.36 1018.48 1018.62 1018.78 1018.84 1018.90 1019.07 1019.14 1019.23 1019.24 1019.27 1019.32 1019.38 1019.49 1019.57 1019.73 1019.80 1019.99 1020.06 1020.10 1020.00 1019.28 1019.07 1019.26 1019.01 1020.14 1020.67 1020.86 1021.01 1021.14 1021.23 1021.30
1013.45 1014.16 1015.40 1016.18 1017.02 1017.46 1017.62 1017.76 1017.95 1018.19 1018.44 1018.67 1018.77 1018.82 1018.94 1019.06 1019.07 1019.14 1019.23 1019.30 1019.36 1019.35 1019.46 1019.52 1019.59 1019.64 1019.74 1019.85 1020.00 1020.08 1020.17 1020.18 1019.44 1018.79 1018.77 1018.96 1020.10 1020.55 1020.77 1020.95 1021.09 1021.21 1021.25
1013.91 1014.21 1015.00 1015.51 1016.49 1017.01 1017.47 1018.02 1018.16 1018.47 1018.73 1018.94 1019.06 1019.13 1019.12 1019.18 1019.20 1019.23 1019.21 1019.21 1019.32 1019.33 1019.40 1019.56 1019.63 1019.62 1019.73 1019.78 1019.83 1019.97 1020.09 1020.15 1019.54 1018.85 1018.88 1018.95 1019.96 1020.43 1020.45 1020.62 1020.84 1021.08 1021.24
1014.32 1014.37 1014.79 1015.28 1016.10 1016.85 1017.21 1017.83 1018.35 1018.54 1018.82 1019.10 1019.33 1019.47 1019.46 1018.72 1018.52 1018.57 1018.88 1019.32 1019.40 1019.32 1019.45 1019.47 1019.54 1019.67 1019.60 1019.66 1019.72 1019.87 1019.96 1019.15 1018.81 1018.64 1018.35 1019.58 1020.01 1020.19 1020.23 1020.33 1020.66 1020.86 1021.03
1014.07 1014.39 1014.99 1015.45 1015.89 1016.47 1016.82 1017.40 1017.95 1018.45 1018.82 1019.41 1019.55 1019.67 1019.61 1019.53 1018.74 1018.87 1019.11 1019.52 1019.47 1019.34 1019.26 1019.34 1019.51 1019.49 1019.48 1018.26 1018.33 1019.43 1019.15 1018.42 1018.83 1018.89 1018.58 1019.65 1020.02 1020.01 1020.16 1020.19 1020.33 1020.58 1020.91
1013.84 1014.37 1014.98 1015.64 1016.06 1016.35 1016.88 1017.23 1018.22 1018.49 1019.02 1019.23 1019.35 1019.52 1019.43 1019.43 1019.04 1018.55 1018.58 1018.62 1018.51 1018.72 1018.49 1018.70 1019.13 1018.92 1017.97 1017.62 1017.66 1017.52 1017.79 1018.12 1018.28 1018.41 1018.78 1019.33 1019.77 1019.86 1019.93 1020.05 1020.11 1020.29 1020.46
1013.54 1014.34 1014.97 1015.26 1016.14 1016.51 1016.98 1017.69 1018.22 1018.62 1018.78 1019.18 1019.20 1019.27 1019.49 1019.14 1019.33 1018.74 1019.18 1018.57 1018.80 1018.24 1018.19 1018.13 1018.55 1018.54 1018.54 1018.14 1018.15 1018.11 1018.15 1017.89 1017.59 1017.81 1018.34 1019.12 1019.42 1019.55 1019.61 1019.75 1019.91 1020.03 1020.18
1013.26 1013.97 1014.59 1015.23 1016.17 1016.69 1017.33 1017.66 1017.92 1018.35 1018.55 1018.61 1018.82 1019.12 1019.13 1018.95 1018.62 1018.27 1018.42 1018.43 1018.24 1017.98 1017.78 1018.48 1018.35 1017.93 1018.24 1017.99 1017.98 1017.99 1017.99 1017.83 1017.88 1017.56 1017.71 1018.68 1019.09 1019.25 1019.34 1019.41 1019.56 1019.71 1019.85
1013.05 1013.60 1014.28 1014.89 1015.76 1016.40 1016.37 1016.97 1017.52 1018.02 1018.28 1018.00 1018.26 1018.16 1018.95 1018.92 1018.70 1018.04 1017.80 1018.22 1017.63 1017.48 1018.22 1018.28 1018.49 1018.53 1018.41 1017.57 1017.58 1017.78 1017.81 1017.54 1017.50 1017.58 1017.46 1017.62 1018.59 1018.87 1019.02 1019.09 1019.23 1019.28 1019.41
1012.73 1013.25 1013.85 1014.47 1014.89 1015.68 1016.03 1016.85 1017.12 1017.66 1017.94 1018.04 1018.24 1017.82 1018.10 1018.10 1017.97 1018.22 1017.65 1017.53 1017.14 1017.15 1017.83 1018.54 1018.02 1018.21 1018.34 1017.28 1017.29 1017.17 1017.40 1017.32 1017.08 1017.34 1017.41 1017.23 1017.31 1018.21 1018.49 1018.60 1018.71 1018.81 1018.88
1012.34 1013.02 1013.66 1013.97 1014.31 1014.94 1015.28 1016.12 1016.41 1016.63 1017.35 1017.65 1017.78 1017.28 1017.49 1017.78 1017.85 1017.66 1017.27 1016.99 1016.93 1017.46 1017.52 1017.67 1017.95 1018.11 1017.75 1017.70 1017.22 1016.70 1016.79 1016.69 1016.60 1016.91 1016.84 1016.79 1016.80 1016.57 1017.50 1017.94 1018.10 1018.18 1018.27
1011.89 1012.73 1013.34 1013.74 1014.07 1014.38 1014.90 1015.44 1015.84 1016.55 1016.69 1016.91 1017.23 1017.20 1016.72 1017.14 1017.12 1017.36 1016.81 1016.64 1016.85 1017.00 1017.52 1018.00 1018.00 1017.97 1017.74 1017.76 1017.64 1016.96 1016.21 1016.04 1016.07 1015.94 1016.03 1016.26 1016.26 1016.51 1016.03 1016.74 1017.36 1017.62 1017.74
1011.45 1012.39 1012.90 1013.35 1013.93 1014.40 1014.68 1015.06 1015.43 1015.48 1015.38 1015.95 1016.33 1015.91 1016.23 1016.40 1016.57 1016.72 1016.25 1016.45 1016.67 1016.59 1017.07 1017.03 1017.54 1017.27 1017.36 1017.54 1017.46 1016.89 1016.73 1015.75 1015.50 1015.48 1015.37 1015.27 1015.47 1015.95 1016.05 1015.95 1016.29 1016.50 1016.90
1011.23 1011.79 1012.43 1012.99 1013.53 1014.15 1014.30 1014.18 1014.38 1014.64 1015.12 1014.98 1015.01 1015.43 1015.77 1016.02 1016.12 1016.41 1015.95 1015.97 1016.46 1016.68 1016.86 1016.94 1017.06 1017.27 1016.96 1016.86 1017.39 1017.17 1016.06 1015.54 1015.52 1015.30 1014.98 1014.82 1014.71 1014.96 1015.10 1015.29 1015.53 1015.27 1015.17
1010.27 1011.02 1011.75 1012.43 1013.10 1013.65 1013.74 1013.94 1014.00 1014.35 1014.79 1014.77 1014.33 1014.61 1015.11 1015.33 1015.60 1015.64 1016.02 1016.14 1016.29 1016.40 1016.61 1016.63 1016.71 1016.97 1017.06 1016.95 1016.72 1016.84 1015.47 1014.79 1014.41 1014.60 1014.54 1014.74 1014.83 1014.57 1014.44 1014.82 1014.98 1014.97 1014.91
1009.41 1010.16 1010.95 1011.72 1012.42 1013.04 1013.34 1013.59 1013.96 1014.19 1014.40 1014.54 1014.37 1014.48 1014.41 1014.85 1015.00 1015.29 1015.41 1015.77 1016.05 1016.03 1015.86 1016.22 1016.42 1016.62 1016.50 1016.36 1016.16 1015.60 1015.80 1015.36 1014.09 1014.04 1014.89 1015.13 1014.57 1014.34 1014.19 1014.19 1014.42 1014.52 1014.63
1008.65 1009.53 1010.46 1011.36 1011.97 1012.55 1013.07 1013.16 1013.43 1013.32 1013.78 1013.73 1013.79 1014.02 1014.41 1014.31 1014.46 1014.74 1015.07 1015.60 1015.85 1015.82 1015.90 1016.27 1016.09 1016.17 1016.14 1016.18 1016.26 1015.96 1015.70 1016.20 1016.26 1014.98 1013.92 1014.27 1014.55 1014.24 1013.61 1013.57 1013.45 1013.66 1013.93
1007.90 1008.78 1009.93 1011.03 1011.60 1012.02 1012.58 1013.04 1013.13 1013.44 1013.16 1013.59 1013.38 1013.77 1014.23 1013.90 1013.98 1014.23 1014.60 1015.09 1015.80 1015.35 1015.52 1015.83 1015.91 1015.77 1015.77 1015.88 1015.93 1016.16 1016.39 1016.44 1016.51 1016.36 1014.54 1013.41 1014.22 1014.34 1013.59 1013.16 1012.90 1012.62 1012.78
1007.62 1008.44 1009.35 1010.31 1011.14 1011.67 1012.17 1012.71 1012.89 1012.97 1013.24 1013.15 1013.60 1013.83 1013.55 1013.68 1013.61 1014.09 1014.23 1014.55 1014.97 1014.89 1014.88 1014.97 1015.42 1015.36 1015.39 1015.27 1015.71 1016.07 1015.94 1016.00 1015.85 1015.86 1015.30 1015.05 1014.37 1012.94 1012.90 1012.89 1012.49 1012.35 1012.25
Wind_Speed
14 15 12 14 15 15 15 15 14 15 14 14 14 13 11 11 10 10 11 11 11 11 12 11 13 13 13 12 13 14 14 14 14 15 15 15 14 14 12 10 15 15 14
19 17 13 15 16 16 16 15 15 14 14 14 14 13 11 9 9 10 10 10 9 10 12 12 13 12 13 12 13 13 13 13 13 14 15 14 14 13 10 11 15 14 13
19 18 16 14 16 17 16 16 15 15 14 14 12 11 10 8 7 9 9 10 9 9 10 11 14 13 12 12 12 13 12 11 12 10 11 11 14 11 11 12 13 12 12
19 18 17 14 15 16 16 16 15 15 14 13 12 11 10 9 8 8 9 9 10 8 10 10 11 12 12 11 11 11 13 12 10 9 8 11 13 10 11 11 11 11 11
17 18 18 15 14 16 16 15 14 13 13 12 12 11 11 10 8 8 7 8 9 9 8 10 9 9 10 8 8 12 13 11 6 6 7 6 10 10 10 10 10 8 5
17 18 18 15 16 15 15 15 14 13 11 10 11 10 9 8 7 6 8 7 6 6 8 8 8 7 10 8 7 9 11 8 10 7 7 4 7 11 9 8 8 8 8
17 19 17 15 15 15 15 14 13 12 11 10 9 8 8 7 6 5 4 4 5 6 6 6 6 7 8 8 8 7 7 5 2 5 5 5 11 7 7 7 7 6 6
17 19 18 16 15 15 15 14 12 11 10 9 8 7 6 5 5 4 4 3 3 3 4 6 6 7 6 6 6 6 5 8 7 5 3 5 15 8 8 7 6 6 6
16 17 16 16 14 13 13 13 12 10 9 8 7 6 5 3 1 2 2 3 3 4 4 4 5 6 8 7 7 7 6 7 10 1 6 6 14 10 10 9 8 6 7
14 15 15 15 15 13 12 11 10 10 8 7 5 5 3 3 4 5 3 5 4 6 6 6 6 6 6 6 8 9 8 8 11 5 6 5 13 11 11 11 11 8 7
13 14 14 14 14 12 10 10 10 10 10 8 3 7 6 8 5 5 5 4 5 7 7 7 8 7 8 8 8 8 9 9 7 6 3 10 10 12 11 7 10 9 8
17 15 13 12 13 12 9 8 8 8 6 5 2 7 3 4 9 6 4 2 6 8 9 8 9 8 9 9 10 10 8 10 8 5 4 10 10 13 12 9 10 10 8
17 13 14 13 10 11 1 6 3 4 4 4 5 4 3 4 8 5 3 4 5 5 8 8 8 8 12 7 5 6 8 6 7 5 7 12 11 12 13 12 10 10 11
16 14 14 14 11 8 7 3 4 4 4 3 4 6 5 6 4 6 3 6 5 5 7 4 7 7 9 6 8 7 8 9 6 5 5 9 9 12 13 14 12 11 11
14 14 13 13 11 9 6 4 4 6 6 9 8 7 6 6 6 6 5 4 7 6 7 5 7 5 7 8 9 8 9 9 9 5 5 12 10 11 12 13 13 12 12
12 13 13 13 13 13 12 10 6 5 8 8 9 8 10 8 8 8 7 7 7 6 2 6 4 5 6 9 8 9 9 9 8 8 6 6 13 13 13 13 14 15 14
12 12 13 13 13 13 12 8 7 7 9 8 9 9 10 8 8 9 8 6 6 4 2 3 8 6 7 10 7 8 8 10 9 9 8 7 9 17 17 16 16 16 16
11 11 11 11 13 15 13 10 9 7 6 7 7 9 9 9 8 8 7 7 5 6 3 6 2 6 6 6 7 8 8 10 9 9 9 8 7 8 16 18 16 15 16
12 10 11 12 12 12 11 9 9 8 7 7 7 8 9 9 8 8 6 6 6 4 3 5 3 7 6 4 6 10 8 7 8 10 10 9 10 9 8 19 18 16 16
11 12 12 10 11 10 7 7 6 6 7 7 6 8 7 8 8 8 7 6 6 6 5 7 6 7 6 6 7 7 7 9 8 7 9 10 9 10 10 10 11 12 19
12 13 13 12 11 9 8 8 8 8 6 7 8 9 9 9 9 8 7 8 6 6 6 7 6 7 7 3 2 4 9 9 10 9 8 8 9 10 10 9 8 8 10
14 14 13 14 13 11 9 7 6 3 5 7 7 7 10 11 10 10 8 7 7 6 7 8 6 4 6 6 4 2 9 4 9 9 9 8 9 9 9 10 11 11 9
14 14 14 14 13 12 11 8 6 6 5 5 5 6 9 11 11 10 9 6 4 6 5 4 7 9 6 5 10 3 1 4 5 6 4 4 7 7 8 9 11 12 12
13 12 13 13 13 12 13 10 11 7 7 5 5 5 6 8 9 9 9 5 6 3 5 6 7 8 7 5 4 7 5 1 0 6 3 4 5 8 8 7 8 10 11
12 11 11 12 13 12 12 11 9 9 7 6 6 3 5 6 7 7 7 7 6 7 7 7 9 8 5 5 5 3 2 1 3 5 10 5 5 6 9 7 9 8 10
12 11 11 13 13 13 13 12 12 10 9 6 5 5 6 4 4 6 6 5 6 6 6 6 8 9 6 6 1 4 4 3 3 5 8 5 9 7 6 9 8 8 8
Wind_Direction
142 127 123 119 121 122 125 129 129 130 131 130 127 130 132 121 115 104 99 101 103 107 107 106 110 117 121 117 115 112 111 114 109 108 107 105 103 101 105 119 142 101 101
136 137 131 121 120 121 121 125 130 131 132 131 131 134 129 126 114 102 98 102 101 110 111 111 104 101 112 120 111 124 117 118 111 110 115 107 101 102 96 69 66 96 103
141 132 139 127 125 122 121 125 130 135 137 133 135 133 131 125 119 116 108 109 110 112 112 107 112 114 115 115 115 115 118 113 109 132 171 122 100 102 101 99 95 97 103
139 149 141 130 130 130 127 130 134 139 138 138 137 130 130 128 136 129 123 125 119 115 110 113 117 122 125 127 132 125 117 120 131 175 166 125 112 111 104 107 103 105 104
149 145 122 139 136 135 135 135 136 140 140 142 137 132 130 126 117 116 121 113 124 132 121 124 122 118 124 123 109 117 114 117 163 203 78 48 116 114 116 117 127 127 96
160 141 134 146 141 138 135 135 137 140 137 132 129 130 125 121 118 118 130 121 122 120 134 132 126 126 134 133 120 116 119 137 213 107 120 110 73 121 133 116 108 118 116
157 131 150 142 147 146 144 141 143 145 145 140 140 140 135 133 133 131 128 125 138 146 143 139 137 127 133 149 154 151 151 183 92 123 99 157 104 139 139 127 120 111 114
154 143 139 150 157 154 152 150 150 154 152 150 153 150 150 149 154 155 169 184 176 173 166 163 161 163 165 161 173 164 186 233 206 137 176 180 113 150 153 144 140 152 153
152 155 156 163 163 160 156 161 163 164 162 161 159 157 175 164 189 165 212 238 232 226 220 206 181 184 179 193 198 208 220 242 279 243 224 216 139 173 173 165 166 183 161
166 160 166 166 170 173 168 172 173 176 172 170 169 193 169 193 213 216 227 213 256 260 234 229 220 210 204 210 207 214 227 230 253 182 208 93 147 182 190 181 176 182 187
177 171 172 178 173 177 179 172 184 187 179 172 137 17 314 304 161 165 64 16 296 280 259 257 230 224 220 222 221 221 227 232 235 246 245 114 169 194 204 206 183 189 195
182 179 173 187 184 182 191 175 199 183 170 94 129 204 266 299 308 329 328 320 295 281 268 242 244 229 227 240 187 200 229 228 230 236 238 134 183 199 212 209 203 201 206
181 183 182 193 201 193 191 166 206 163 134 176 197 223 261 250 259 236 307 275 280 219 261 203 217 235 232 242 249 245 219 225 244 193 273 162 196 213 220 224 223 209 211
179 189 192 195 199 230 193 165 185 155 152 174 198 219 222 257 221 253 223 247 253 275 275 222 255 185 274 240 256 258 241 262 238 240 213 159 205 219 227 230 229 223 222
183 188 200 198 189 201 202 207 199 186 178 202 222 215 229 244 243 251 257 273 277 287 262 242 280 279 220 250 236 234 241 247 257 247 245 165 215 217 227 230 224 229 230
194 194 196 196 177 200 208 198 202 197 219 226 234 224 210 220 231 262 256 245 259 255 192 270 234 241 257 256 224 245 238 240 233 264 246 206 204 222 224 230 229 232 240
193 195 198 202 196 200 198 199 223 218 216 225 237 221 232 242 244 262 258 258 240 235 272 290 261 265 247 242 246 222 239 241 247 233 247 248 197 210 224 233 237 239 243
207 194 202 201 203 198 212 191 223 202 231 223 225 257 217 242 251 249 244 241 212 220 266 268 340 264 287 294 269 230 217 248 226 243 241 247 230 257 199 220 225 230 234
197 196 206 207 210 208 207 220 201 219 220 225 223 231 233 240 236 242 242 232 229 249 166 223 235 260 248 253 256 272 245 241 233 240 229 236 242 245 259 180 210 222 232
198 200 205 208 210 209 212 218 224 220 223 211 215 240 239 236 232 222 229 230 232 234 219 234 234 277 224 239 238 286 294 271 239 247 255 229 219 227 240 256 195 213 220
212 208 209 206 202 202 204 214 220 223 200 223 228 230 233 235 227 229 247 221 221 245 252 254 246 257 264 222 225 259 248 246 247 249 247 251 250 235 240 234 242 248 208
205 214 208 209 200 200 207 218 237 221 219 225 233 223 224 226 230 235 233 255 234 247 240 247 243 242 245 219 194 208 258 278 214 234 238 241 255 265 244 237 246 246 253
215 207 211 208 204 203 216 207 208 235 240 228 240 226 227 227 229 234 247 249 230 229 256 271 269 230 250 225 217 270 271 260 339 156 209 253 257 243 242 244 251 250 241
218 208 208 206 208 202 205 215 218 220 228 245 224 224 215 219 227 228 230 215 226 222 232 244 267 254 226 229 218 215 271 184 357 313 175 216 292 273 233 237 235 232 236
206 203 201 199 205 211 203 221 220 235 238 214 230 219 217 195 213 223 220 204 218 224 236 257 259 245 241 233 218 164 221 223 243 254 282 256 194 238 271 239 255 242 238
209 197 193 195 201 200 203 204 226 238 246 243 221 229 246 214 203 193 200 205 209 236 228 229 231 234 226 236 129 203 205 188 200 213 245 267 267 279 241 266 251 254 249